TimePST,TemperatureF,Dew PointF,Humidity,Sea Level PressureIn,VisibilityMPH,Wind Direction,Wind SpeedMPH,Gust SpeedMPH,PrecipitationIn,Events,Conditions,WindDirDegrees,DateUTC
12:56 AM,48.0,37.0,66,29.95,10.0,Calm,Calm,-,N/A,,Clear,0,2013-11-04 08:56:00
1:56 AM,46.0,36.0,68,29.96,10.0,Calm,Calm,-,N/A,,Clear,0,2013-11-04 09:56:00
2:56 AM,46.9,37.0,68,29.94,10.0,Calm,Calm,-,N/A,,Clear,0,2013-11-04 10:56:00
3:56 AM,46.0,36.0,68,29.95,10.0,West,3.5,-,N/A,,Clear,270,2013-11-04 11:56:00
4:56 AM,46.0,37.0,71,29.95,10.0,West,3.5,-,N/A,,Clear,260,2013-11-04 12:56:00
5:56 AM,46.0,37.0,71,29.99,10.0,West,3.5,-,N/A,,Clear,260,2013-11-04 13:56:00
6:56 AM,46.9,39.0,74,30.00,10.0,Calm,Calm,-,N/A,,Clear,0,2013-11-04 14:56:00
7:56 AM,51.1,41.0,68,30.02,10.0,Calm,Calm,-,N/A,,Clear,0,2013-11-04 15:56:00
8:56 AM,54.0,41.0,62,30.03,10.0,Calm,Calm,-,N/A,,Clear,0,2013-11-04 16:56:00
9:56 AM,57.9,37.9,47,30.04,10.0,NNW,6.9,-,N/A,,Clear,340,2013-11-04 17:56:00
10:56 AM,61.0,30.9,32,30.04,10.0,NW,10.4,-,N/A,,Clear,320,2013-11-04 18:56:00
11:56 AM,64.0,28.0,26,30.00,10.0,WNW,6.9,-,N/A,,Clear,290,2013-11-04 19:56:00
12:56 PM,64.0,26.1,24,29.99,10.0,West,9.2,-,N/A,,Clear,280,2013-11-04 20:56:00
1:56 PM,66.9,27.0,22,29.98,10.0,NW,12.7,-,N/A,,Clear,320,2013-11-04 21:56:00
2:56 PM,66.9,27.0,22,29.97,10.0,NW,10.4,-,N/A,,Clear,320,2013-11-04 22:56:00
3:56 PM,66.9,27.0,22,29.98,10.0,NW,8.1,-,N/A,,Clear,320,2013-11-04 23:56:00
4:56 PM,62.1,37.9,41,29.99,10.0,NNW,5.8,-,N/A,,Clear,340,2013-11-05 00:56:00
5:56 PM,57.9,39.0,49,30.01,10.0,Calm,Calm,-,N/A,,Clear,0,2013-11-05 01:56:00
6:56 PM,59.0,34.0,39,30.03,10.0,Calm,Calm,-,N/A,,Clear,0,2013-11-05 02:56:00
7:56 PM,57.9,32.0,37,30.04,10.0,WSW,4.6,-,N/A,,Clear,250,2013-11-05 03:56:00
8:56 PM,57.0,33.1,40,30.05,10.0,West,3.5,-,N/A,,Clear,260,2013-11-05 04:56:00
9:56 PM,57.9,33.1,39,30.07,10.0,WNW,5.8,-,N/A,,Clear,290,2013-11-05 05:56:00
10:56 PM,57.9,33.1,39,30.06,10.0,West,4.6,-,N/A,,Clear,270,2013-11-05 06:56:00
11:56 PM,55.9,33.1,42,30.09,10.0,Calm,Calm,-,N/A,,Clear,0,2013-11-05 07:56:00